When you browse on this site, cookies collect data to enhance your experience and personalize the content and advertising you see.
Visit our Privacy Policy to learn more. By continuing to use the site, you agree to this use of cookies and data.
  • In United Kingdom
  • List of Countries
  • For 7 days
  • Water Temperature
  • Weather Map
  • Weather Widgets
  • user-avatar
    Login

    Hourly Weather Szekesfehervar

    Today, 5 June, Friday

    Time Temperature Precipitation Wind Pressure Humidity
    00:00 +19°C° 0 mm 5 mps 737 mmHg 64%
    01:00 +19°C° 0 mm 5 mps 738 mmHg 63%
    02:00 +17°C° 0.1 mm 5 mps 737 mmHg 66%
    03:00 +16°C° 0.1 mm 5 mps 737 mmHg 69%
    04:00 +15°C° 0.1 mm 5 mps 737 mmHg 72%
    05:00 +16°C° 0.4 mm 5 mps 737 mmHg 74%
    06:00 +17°C° 0.4 mm 6 mps 737 mmHg 75%
    07:00 +19°C° 0.4 mm 6 mps 738 mmHg 76%
    08:00 +19°C° 0.2 mm 6 mps 738 mmHg 76%
    09:00 +20°C° 0.2 mm 5 mps 738 mmHg 75%
    10:00 +20°C° 0.2 mm 5 mps 738 mmHg 74%
    11:00 +19°C° 0.9 mm 5 mps 738 mmHg 78%
    12:00 +19°C° 0.9 mm 4 mps 738 mmHg 83%
    13:00 +18°C° 0.9 mm 3 mps 738 mmHg 87%
    14:00 +18°C° 1.1 mm 3 mps 739 mmHg 88%
    15:00 +17°C° 1.1 mm 2 mps 739 mmHg 88%
    16:00 +17°C° 1.1 mm 2 mps 739 mmHg 89%
    17:00 +18°C° 0.1 mm 1 mps 739 mmHg 91%
    18:00 +18°C° 0.1 mm 1 mps 740 mmHg 92%
    19:00 +16°C° 0.1 mm 1 mps 740 mmHg 94%
    20:00 +16°C° 0 mm 1 mps 741 mmHg 94%
    21:00 +15°C° 0 mm 1 mps 741 mmHg 94%
    22:00 +15°C° 0 mm 1 mps 742 mmHg 94%
    23:00 +14°C° 0 mm 1 mps 742 mmHg 94%

    Tomorrow, 6 June, Saturday

    Time Temperature Precipitation Wind Pressure Humidity
    00:00 +14°C° 0 mm 1 mps 743 mmHg 94%
    01:00 +14°C° 0 mm 1 mps 743 mmHg 94%
    02:00 +13°C° 0 mm 1 mps 743 mmHg 93%
    03:00 +13°C° 0 mm 1 mps 744 mmHg 93%
    04:00 +13°C° 0 mm 1 mps 744 mmHg 93%
    05:00 +14°C° 0 mm 1 mps 745 mmHg 88%
    06:00 +16°C° 0 mm 1 mps 745 mmHg 83%
    07:00 +18°C° 0 mm 2 mps 745 mmHg 78%
    08:00 +19°C° 0 mm 2 mps 745 mmHg 71%
    09:00 +21°C° 0 mm 3 mps 746 mmHg 65%
    10:00 +22°C° 0 mm 4 mps 746 mmHg 58%
    11:00 +24°C° 0.1 mm 3 mps 745 mmHg 59%
    12:00 +25°C° 0.1 mm 3 mps 745 mmHg 59%
    13:00 +25°C° 0.1 mm 3 mps 745 mmHg 60%
    14:00 +26°C° 0 mm 3 mps 744 mmHg 60%
    15:00 +26°C° 0 mm 3 mps 744 mmHg 60%
    16:00 +26°C° 0 mm 3 mps 744 mmHg 59%
    17:00 +25°C° 0.2 mm 2 mps 743 mmHg 66%
    18:00 +24°C° 0.2 mm 2 mps 743 mmHg 72%
    19:00 +21°C° 0.2 mm 2 mps 743 mmHg 79%
    20:00 +20°C° 0.6 mm 2 mps 743 mmHg 82%
    21:00 +19°C° 0.6 mm 2 mps 743 mmHg 86%
    22:00 +18°C° 0.6 mm 2 mps 743 mmHg 89%
    23:00 +18°C° 0.6 mm 2 mps 743 mmHg 91%

    Day after tomorrow, 7 June, Sunday

    Time Temperature Precipitation Wind Pressure Humidity
    00:00 +18°C° 0.6 mm 2 mps 743 mmHg 92%
    01:00 +17°C° 0.6 mm 2 mps 743 mmHg 93%
    02:00 +17°C° 0.5 mm 2 mps 743 mmHg 94%
    03:00 +17°C° 0.5 mm 2 mps 743 mmHg 94%
    04:00 +18°C° 0.5 mm 1 mps 743 mmHg 95%
    05:00 +19°C° 1.3 mm 1 mps 743 mmHg 93%
    06:00 +20°C° 1.3 mm 1 mps 743 mmHg 91%
    07:00 +21°C° 1.3 mm 1 mps 744 mmHg 90%
    08:00 +21°C° 0.2 mm 1 mps 744 mmHg 86%
    09:00 +22°C° 0.2 mm 1 mps 744 mmHg 83%
    10:00 +23°C° 0.2 mm 1 mps 744 mmHg 80%
    11:00 +24°C° 0.9 mm 1 mps 744 mmHg 77%
    12:00 +25°C° 0.9 mm 1 mps 744 mmHg 74%
    13:00 +25°C° 0.9 mm 1 mps 744 mmHg 71%
    14:00 +26°C° 1.2 mm 1 mps 744 mmHg 70%
    15:00 +26°C° 1.2 mm 2 mps 743 mmHg 68%
    16:00 +26°C° 1.2 mm 2 mps 743 mmHg 67%
    17:00 +25°C° 0.7 mm 1 mps 743 mmHg 71%
    18:00 +24°C° 0.7 mm 1 mps 744 mmHg 76%
    19:00 +22°C° 0.7 mm 1 mps 744 mmHg 80%
    20:00 +21°C° 0.3 mm 1 mps 744 mmHg 83%
    21:00 +20°C° 0.3 mm 1 mps 745 mmHg 85%
    22:00 +18°C° 0.3 mm 2 mps 745 mmHg 88%
    23:00 +18°C° 0.1 mm 2 mps 745 mmHg 90%

    8 June, Monday

    Time Temperature Precipitation Wind Pressure Humidity
    00:00 +17°C° 0.1 mm 2 mps 745 mmHg 91%
    01:00 +16°C° 0.1 mm 1 mps 745 mmHg 93%
    02:00 +16°C° 0 mm 2 mps 745 mmHg 94%
    03:00 +15°C° 0 mm 2 mps 745 mmHg 94%
    04:00 +15°C° 0 mm 2 mps 745 mmHg 94%
    05:00 +15°C° 0 mm 2 mps 745 mmHg 91%
    06:00 +16°C° 0 mm 2 mps 745 mmHg 88%
    07:00 +17°C° 0 mm 2 mps 746 mmHg 85%
    08:00 +18°C° 0.1 mm 2 mps 746 mmHg 83%
    09:00 +19°C° 0.1 mm 1 mps 746 mmHg 80%
    10:00 +20°C° 0.1 mm 1 mps 746 mmHg 78%
    11:00 +22°C° 0 mm 1 mps 746 mmHg 74%
    12:00 +23°C° 0 mm 1 mps 746 mmHg 69%
    13:00 +24°C° 0 mm 2 mps 746 mmHg 65%
    14:00 +24°C° 0.5 mm 2 mps 746 mmHg 66%
    15:00 +24°C° 0.5 mm 2 mps 745 mmHg 67%
    16:00 +24°C° 0.5 mm 1 mps 745 mmHg 68%
    17:00 +23°C° 0.2 mm 2 mps 745 mmHg 73%
    18:00 +21°C° 0.2 mm 2 mps 745 mmHg 79%
    19:00 +20°C° 0.2 mm 2 mps 745 mmHg 84%
    20:00 +19°C° 0.1 mm 2 mps 745 mmHg 86%
    21:00 +18°C° 0.1 mm 2 mps 746 mmHg 89%
    22:00 +17°C° 0.1 mm 2 mps 746 mmHg 91%
    23:00 +17°C° 0.1 mm 2 mps 746 mmHg 90%

    9 June, Tuesday

    Time Temperature Precipitation Wind Pressure Humidity
    00:00 +17°C° 0.1 mm 2 mps 746 mmHg 90%
    01:00 +18°C° 0.1 mm 1 mps 746 mmHg 89%
    02:00 +16°C° 0.3 mm 2 mps 746 mmHg 90%
    03:00 +16°C° 0.3 mm 2 mps 745 mmHg 92%
    04:00 +16°C° 0.3 mm 2 mps 745 mmHg 93%
    05:00 +16°C° 0.4 mm 2 mps 746 mmHg 93%
    06:00 +16°C° 0.4 mm 2 mps 746 mmHg 92%
    07:00 +17°C° 0.4 mm 2 mps 746 mmHg 92%
    08:00 +17°C° 0.2 mm 2 mps 746 mmHg 90%
    09:00 +18°C° 0.2 mm 2 mps 746 mmHg 88%
    10:00 +19°C° 0.2 mm 3 mps 747 mmHg 86%
    11:00 +20°C° 0.5 mm 3 mps 746 mmHg 84%
    12:00 +21°C° 0.5 mm 3 mps 746 mmHg 81%
    13:00 +21°C° 0.5 mm 3 mps 746 mmHg 79%
    14:00 +21°C° 1.1 mm 4 mps 746 mmHg 82%
    15:00 +20°C° 1.1 mm 5 mps 746 mmHg 84%
    16:00 +19°C° 1.1 mm 5 mps 746 mmHg 87%
    17:00 +19°C° 0.5 mm 5 mps 746 mmHg 88%
    18:00 +17°C° 0.5 mm 5 mps 746 mmHg 90%
    19:00 +16°C° 0.5 mm 5 mps 747 mmHg 91%
    20:00 +15°C° 0.1 mm 5 mps 747 mmHg 92%
    21:00 +15°C° 0.1 mm 4 mps 747 mmHg 93%
    22:00 +14°C° 0.1 mm 4 mps 748 mmHg 94%
    23:00 +14°C° 0 mm 4 mps 748 mmHg 95%

    10 June, Wednesday

    Time Temperature Precipitation Wind Pressure Humidity
    00:00 +13°C° 0 mm 4 mps 748 mmHg 95%
    01:00 +13°C° 0 mm 3 mps 748 mmHg 95%
    02:00 +13°C° 0 mm 3 mps 748 mmHg 94%
    03:00 +13°C° 0 mm 3 mps 748 mmHg 94%
    04:00 +13°C° 0 mm 3 mps 748 mmHg 94%
    05:00 +14°C° 0 mm 4 mps 749 mmHg 90%
    06:00 +15°C° 0 mm 4 mps 749 mmHg 87%
    07:00 +17°C° 0 mm 4 mps 750 mmHg 84%
    08:00 +19°C° 0 mm 4 mps 750 mmHg 79%
    09:00 +20°C° 0 mm 4 mps 750 mmHg 75%
    10:00 +21°C° 0 mm 4 mps 750 mmHg 70%
    11:00 +22°C° 0 mm 4 mps 750 mmHg 68%
    12:00 +23°C° 0 mm 4 mps 750 mmHg 67%
    13:00 +23°C° 0 mm 4 mps 750 mmHg 65%
    14:00 +24°C° 0 mm 3 mps 750 mmHg 65%
    15:00 +24°C° 0 mm 3 mps 749 mmHg 64%
    16:00 +24°C° 0 mm 3 mps 749 mmHg 64%
    17:00 +23°C° 0 mm 2 mps 749 mmHg 69%
    18:00 +21°C° 0 mm 2 mps 749 mmHg 74%
    19:00 +21°C° 0 mm 1 mps 749 mmHg 79%
    20:00 +20°C° 0 mm 1 mps 750 mmHg 82%
    21:00 +19°C° 0 mm 1 mps 750 mmHg 84%
    22:00 +18°C° 0 mm 1 mps 750 mmHg 87%
    23:00 +16°C° 0 mm 1 mps 750 mmHg 89%
    Show more